This demonstration page uses our WeatherBlox Daily Observations layout. Learn more.

Hourly Observations for October 6, 2018

Temp ( °F °C ) Dew Point ( °F °C ) Humidity (%) Winds ( mph kmh ) Pressure ( in mb ) Visibility ( mi km ) Precip ( " mm )
12:15 am 00:15 Partly Cloudy 40 4.5 39 4 97 97 N 8 13 30.15 1021 10 16.0934 0 0
12:35 am 00:35 Mostly Cloudy 40 4.6 39 4 96 96 N 13 20 30.15 1021 10 16.0934 0 0
12:55 am 00:55 Cloudy 41 5.1 40 4.3 95 95 N 13 20 30.12 1020 10 16.0934 0 0
1:15 am 01:15 Cloudy 42 5.3 40 4.3 93 93 N 12 19 30.12 1020 10 16.0934 0 0
1:35 am 01:35 Mostly Cloudy 42 5.3 40 4.2 93 93 N 15 24 30.12 1020 10 16.0934 0 0
1:55 am 01:55 Cloudy 42 5.5 40 4.3 92 92 N 15 24 30.12 1020 10 16.0934 0 0
2:15 am 02:15 Cloudy 42 5.7 40 4.2 90 90 N 18 30 30.12 1020 10 16.0934 0 0
2:35 am 02:35 Cloudy 42 5.8 39 3.9 88 88 N 20 31 30.12 1020 10 16.0934 0 0
2:55 am 02:55 Cloudy 42 5.8 38 3.6 86 86 N 18 30 30.12 1020 10 16.0934 0 0
3:15 am 03:15 Cloudy 42 5.5 38 3.5 87 87 N 18 30 30.12 1020 10 16.0934 0 0
3:35 am 03:35 Cloudy 42 5.6 39 3.7 88 88 N 14 22 30.15 1021 10 16.0934 0 0
3:55 am 03:55 Cloudy 42 5.6 39 3.8 88 88 N 17 28 30.18 1022 10 16.0934 0 0
4:15 am 04:15 Cloudy 42 5.5 39 3.7 88 88 N 13 20 30.18 1022 10 16.0934 0 0
4:35 am 04:35 Cloudy 42 5.5 39 3.9 90 90 N 13 20 30.18 1022 10 16.0934 0 0
4:55 am 04:55 Cloudy 42 5.3 39 3.7 90 90 N 14 22 30.18 1022 10 16.0934 0 0
5:15 am 05:15 Cloudy 41 5.1 38 3.6 90 90 N 14 22 30.18 1022 10 16.0934 0 0
5:35 am 05:35 Cloudy 41 5.1 38 3.5 90 90 N 13 20 30.18 1022 10 16.0934 0 0
5:55 am 05:55 Cloudy 41 5 38 3.2 88 88 N 13 20 30.18 1022 10 16.0934 0 0
6:15 am 06:15 Partly Cloudy 40 4.5 37 3 90 90 N 12 19 30.18 1022 10 16.0934 0 0
6:35 am 06:35 Partly Cloudy 40 4.5 37 3 90 90 N 10 17 30.18 1022 10 16.0934 0 0
6:55 am 06:55 Partly Cloudy 40 4.3 38 3.2 93 93 N 12 19 30.18 1022 10 16.0934 0 0
7:15 am 07:15 Partly Cloudy 39 4 38 3.1 94 94 N 9 15 30.18 1022 10 16.0934 0 0
7:35 am 07:35 Partly Cloudy 38 3.5 37 2.9 96 96 N 8 13 30.21 1023 10 16.0934 0 0
7:55 am 07:55 Sunny 37 3 37 2.5 97 97 N 9 15 30.21 1023 10 16.0934 0 0
8:15 am 08:15 Sunny 38 3.2 37 2.8 97 97 N 8 13 30.21 1023 10 16.0934 0 0
8:35 am 08:35 Sunny 39 4 38 3.5 97 97 N 8 13 30.18 1022 10 16.0934 0 0
8:55 am 08:55 Sunny 40 4.6 38 3.6 93 93 N 12 19 30.18 1022 10 16.0934 0 0
9:15 am 09:15 Sunny 42 5.3 39 3.8 90 90 N 12 19 30.18 1022 10 16.0934 0 0
9:35 am 09:35 Mostly Cloudy 43 6 39 3.8 86 86 N 17 28 30.18 1022 10 16.0934 0 0
9:55 am 09:55 Mostly Cloudy 43 6.2 38 3.4 82 82 NNE 15 24 30.18 1022 10 16.0934 0 0
10:15 am 10:15 Mostly Cloudy 45 7.1 38 3.1 76 76 NNE 17 28 30.15 1021 10 16.0934 0 0
10:35 am 10:35 Partly Cloudy 45 7.2 38 3.1 75 75 N 18 30 30.15 1021 10 16.0934 0 0
10:55 am 10:55 Sunny 46 7.9 37 3 71 71 NE 15 24 30.15 1021 10 16.0934 0 0
11:15 am 11:15 Sunny 47 8.5 38 3.5 71 71 N 15 24 30.15 1021 10 16.0934 0 0
11:35 am 11:35 Sunny 47 8.6 38 3.2 69 69 NE 9 15 30.18 1022 10 16.0934 0 0
11:55 am 11:55 Sunny 48 9 38 3.6 69 69 N 12 19 30.15 1021 10 16.0934 0 0
12:15 pm 12:15 Sunny 49 9.6 38 3.6 66 66 NNE 13 20 30.15 1021 10 16.0934 0 0
12:35 pm 12:35 Sunny 50 9.9 39 3.8 66 66 NE 8 13 30.15 1021 10 16.0934 0 0
12:55 pm 12:55 Sunny 50 10.2 38 3.5 63 63 NE 12 19 30.15 1021 10 16.0934 0 0
1:15 pm 13:15 Sunny 51 10.7 38 3.5 61 61 NNE 9 15 30.12 1020 10 16.0934 0 0
1:35 pm 13:35 Sunny 52 11 38 3.2 59 59 NE 6 9 30.12 1020 10 16.0934 0 0
1:55 pm 13:55 Sunny 53 11.5 38 3.5 58 58 NE 13 20 30.12 1020 10 16.0934 0 0
2:15 pm 14:15 Sunny 54 12.3 38 3.4 55 55 NE 14 22 30.09 1019 10 16.0934 0 0
2:35 pm 14:35 Sunny 54 12.2 38 3.2 54 54 ENE 9 15 30.09 1019 10 16.0934 0 0
2:55 pm 14:55 Sunny 54 12.3 37 2.8 53 53 ENE 10 17 30.09 1019 10 16.0934 0 0
3:15 pm 15:15 Sunny 55 12.6 38 3.4 54 54 ENE 9 15 30.09 1019 10 16.0934 0 0
3:35 pm 15:35 Sunny 55 12.7 38 3.3 53 53 NE 8 13 30.09 1019 10 16.0934 0 0
3:55 pm 15:55 Sunny 55 12.7 37 2.8 51 51 ENE 6 9 30.09 1019 10 16.0934 0 0
4:15 pm 16:15 Sunny 55 13 37 3 51 51 NE 12 19 30.06 1018 10 16.0934 0 0
4:35 pm 16:35 Sunny 55 12.6 38 3.2 53 53 NE 7 11 30.06 1018 10 16.0934 0 0
4:55 pm 16:55 Mostly Cloudy 55 12.8 38 3.4 53 53 E 9 15 30.06 1018 10 16.0934 0 0
5:15 pm 17:15 Cloudy 55 12.7 38 3.1 52 52 ENE 10 17 30.06 1018 10 16.0934 0 0
5:35 pm 17:35 Cloudy 55 12.5 38 3.6 55 55 ENE 9 15 30.06 1018 10 16.0934 0 0
5:55 pm 17:55 Cloudy 54 12.3 38 3.3 54 54 E 12 19 30.06 1018 10 16.0934 0 0
6:15 pm 18:15 Cloudy 54 12.2 37 3 54 54 E 12 19 30.06 1018 10 16.0934 0 0
6:35 pm 18:35 Cloudy 54 12 38 3.2 55 55 E 13 20 30.06 1018 10 16.0934 0 0
6:55 pm 18:55 Cloudy 53 11.7 38 3.2 56 56 E 9 15 30.06 1018 10 16.0934 0 0
7:15 pm 19:15 Cloudy 53 11.4 38 3.3 58 58 E 9 15 30.06 1018 10 16.0934 0 0
7:35 pm 19:35 Cloudy 52 11 38 3.4 60 60 E 7 11 30.06 1018 10 16.0934 0 0
7:55 pm 19:55 Cloudy 51 10.8 39 3.8 62 62 ENE 7 11 30.06 1018 10 16.0934 0 0
8:15 pm 20:15 Cloudy 51 10.7 39 4.1 64 64 ENE 5 7 30.09 1019 10 16.0934 0 0
8:35 pm 20:35 Cloudy 51 10.5 40 4.2 65 65 ENE 7 11 30.06 1018 10 16.0934 0 0
8:55 pm 20:55 Cloudy 51 10.5 39 4 64 64 ENE 8 13 30.09 1019 10 16.0934 0 0
9:15 pm 21:15 Cloudy 51 10.4 39 3.7 63 63 E 9 15 30.09 1019 10 16.0934 0 0
9:35 pm 21:35 Cloudy 50 10.1 38 3.3 63 63 E 10 17 30.09 1019 10 16.0934 0 0
9:55 pm 21:55 Cloudy 50 10.1 37 2.9 61 61 E 10 17 30.09 1019 10 16.0934 0 0
10:15 pm 22:15 Cloudy 50 10 38 3.1 63 63 E 9 15 30.12 1020 10 16.0934 0 0
10:35 pm 22:35 Cloudy 50 9.8 38 3.1 63 63 E 10 17 30.12 1020 10 16.0934 0 0
10:55 pm 22:55 Cloudy 49 9.6 38 3.3 65 65 E 12 19 30.12 1020 10 16.0934 0 0
11:15 pm 23:15 Cloudy 49 9.5 38 3.5 66 66 E 8 13 30.12 1020 10 16.0934 0 0
11:35 pm 23:35 Cloudy 49 9.5 39 4 69 69 ESE 10 17 30.12 1020 10 16.0934 0 0
11:55 pm 23:55 Cloudy 49 9.2 40 4.2 71 71 E 7 11 30.12 1020 10 16.0934 0 0

Powered by AerisWeather